RH
58 53 78 76 74 73 72 72 72 72 72 72 71 71 70 69 69 69 66 65 67 68 68 68 70 69 67 67 69 71 72 72 74 74 71 71 73 72 68 66 70 52 74
45 49 80 77 74 74 74 75 75 74 73 72 73 74 71 69 69 70 71 68 67 67 67 67 67 68 69 68 69 72 72 71 70 70 69 70 73 74 74 72 69 59 70
38 46 57 79 75 74 74 74 74 73 73 73 72 73 70 68 69 69 70 70 69 70 68 67 67 69 70 69 70 71 72 70 69 69 69 48 52 72 73 74 75 74 74
34 39 46 82 78 74 73 73 72 72 72 72 71 70 68 69 69 69 69 69 72 71 70 68 69 70 70 70 71 70 69 68 70 68 68 82 39 72 72 73 71 73 74
30 32 54 79 77 75 74 74 73 73 72 72 71 70 70 71 71 70 69 70 72 72 70 72 70 72 71 70 70 72 73 72 70 63 56 90 46 64 71 71 67 70 68
27 32 69 76 73 74 73 73 73 70 72 72 71 71 70 71 71 72 72 71 69 71 71 69 71 70 70 68 67 71 74 70 70 44 51 49 70 73 71 67 70 72 72
24 36 51 78 72 72 73 73 76 68 69 73 73 70 71 69 70 72 70 70 69 70 70 68 68 68 68 67 68 67 71 68 49 40 41 33 55 74 68 68 72 71 68
24 32 48 72 72 72 76 73 71 69 67 71 73 72 73 72 69 68 66 67 65 65 69 70 69 71 70 69 70 70 70 68 43 39 41 41 76 73 67 71 73 73 68
24 29 36 41 60 72 76 73 72 73 71 70 67 67 68 68 66 68 69 67 67 66 67 66 66 68 69 68 67 68 68 68 53 47 32 39 82 74 69 71 74 71 70
23 26 32 33 38 48 53 72 75 73 74 74 73 73 72 68 70 68 68 65 62 63 64 66 66 67 71 70 69 69 68 68 45 79 35 46 79 72 69 70 74 72 69
25 24 26 29 37 43 47 58 70 72 72 69 69 70 68 62 64 62 63 68 68 66 65 65 66 68 71 71 71 70 69 42 31 37 43 81 77 69 65 69 75 75 71
28 25 29 30 30 36 33 60 56 54 50 51 55 64 64 61 55 48 61 67 64 64 66 68 70 70 68 42 59 69 48 34 29 27 54 79 73 71 71 70 74 74 73
26 25 29 30 34 34 36 38 39 39 40 46 55 62 49 54 44 69 46 47 51 63 47 48 55 51 43 65 82 55 52 98 42 39 48 78 72 68 73 71 74 76 74
26 26 27 30 39 35 33 36 39 48 40 37 43 58 58 60 65 52 41 38 41 45 55 48 39 51 66 43 62 61 49 38 40 51 62 78 77 70 71 73 75 76 75
24 26 26 31 48 45 49 38 40 41 37 42 44 43 48 43 46 47 60 46 45 47 53 64 53 49 64 54 39 52 56 46 62 62 41 76 75 76 70 70 74 77 74
24 26 26 31 45 46 48 58 58 46 39 58 64 69 75 45 47 59 68 73 64 66 60 68 68 66 60 47 59 54 40 62 78 80 72 52 78 93 77 72 74 75 74
24 26 28 31 32 49 52 52 53 45 41 44 41 52 65 54 53 72 88 58 55 62 58 60 67 70 53 44 45 46 67 64 78 63 84 72 85 86 90 77 80 79 77
24 30 32 28 29 38 45 49 44 46 43 45 44 44 60 69 80 82 80 85 66 87 56 77 57 51 57 68 63 57 84 82 78 70 67 78 71 67 69 86 81 81 77
26 32 35 36 36 40 56 46 46 46 43 41 41 54 64 60 62 72 65 69 86 82 86 72 86 83 78 59 50 54 64 88 80 61 74 75 78 75 67 70 90 83 75
27 32 38 37 46 49 46 53 44 41 41 41 42 44 60 78 84 87 76 77 73 84 70 75 77 88 76 85 79 78 83 78 70 81 74 70 60 68 62 57 85 74 79
26 32 38 42 48 49 48 50 49 44 44 46 44 56 66 69 93 76 68 72 77 68 69 73 77 75 78 93 98 96 94 87 86 74 65 77 71 60 68 85 97 90 64
27 32 38 45 51 52 47 54 49 47 45 48 49 57 61 65 73 70 75 72 81 67 69 72 80 88 83 90 70 91 91 90 89 88 67 86 69 70 52 74 87 76 70
26 32 37 47 51 57 57 51 57 56 56 54 61 64 70 69 66 69 73 71 73 87 86 83 83 80 82 84 81 65 82 88 94 69 86 82 79 78 74 67 67 75 95
23 26 34 43 50 51 60 57 67 54 53 45 51 48 54 63 74 72 70 73 78 85 86 86 87 87 87 72 81 71 85 94 97 96 94 93 92 89 86 89 56 70 51
21 23 26 43 55 56 62 67 53 64 46 44 46 59 67 64 77 74 66 70 72 71 76 76 76 78 87 82 90 91 75 87 93 97 97 95 95 93 88 89 86 74 59
20 22 25 41 57 58 59 64 67 61 60 52 56 51 49 68 83 70 65 68 66 70 77 69 73 77 87 90 90 86 69 73 92 93 94 96 93 88 92 94 95 99 74
Wind_Speed
14 17 12 15 14 13 13 13 13 13 13 12 11 11 11 9 9 9 8 9 8 9 9 9 10 9 10 9 10 10 9 11 13 13 13 13 13 11 9 7 14 14 11
19 19 14 14 14 13 12 13 12 12 12 11 12 9 9 9 7 7 7 9 8 9 9 10 8 8 10 9 10 11 10 9 8 9 13 15 14 12 11 13 15 12 11
20 19 16 13 14 13 12 12 12 11 11 12 10 9 8 7 7 7 7 8 9 10 10 10 9 10 11 10 11 11 10 9 9 10 16 14 14 12 12 13 13 12 11
19 18 18 13 13 13 12 11 11 11 10 10 9 8 7 6 5 6 7 6 7 9 10 10 10 11 11 10 11 9 8 6 6 9 4 15 17 11 12 11 10 10 12
19 18 20 15 13 13 12 11 11 10 10 9 8 7 6 5 5 5 6 5 7 8 9 10 10 9 11 10 9 8 7 4 8 9 9 14 5 14 11 10 11 8 6
19 21 18 16 14 12 12 10 11 9 8 8 8 6 6 6 6 7 7 6 7 7 7 9 10 9 10 9 8 7 8 6 9 8 5 14 6 15 10 6 10 9 10
19 20 18 14 13 12 11 9 11 9 8 7 8 6 6 8 8 8 7 8 7 8 7 7 8 8 7 7 7 7 6 6 9 2 6 4 13 12 8 7 8 7 8
19 18 17 14 12 11 10 10 9 9 8 7 7 6 7 8 6 6 7 7 6 6 5 6 5 6 6 6 7 7 8 8 8 4 3 6 13 12 7 5 6 7 7
17 17 15 15 12 10 9 9 9 8 8 8 8 7 6 7 6 5 5 4 5 3 5 5 3 3 5 6 6 7 7 7 7 5 5 4 13 11 8 8 8 7 6
14 16 14 16 14 12 12 9 7 8 7 9 7 7 6 7 6 5 5 6 4 3 3 3 4 5 4 5 6 6 6 8 12 9 5 9 12 11 9 9 8 9 8
9 14 12 15 13 10 10 10 8 8 7 6 7 8 7 4 8 6 5 6 3 4 4 5 6 7 7 9 9 9 9 9 12 8 4 16 13 10 10 11 11 11 10
13 13 10 9 15 10 8 11 10 10 9 7 5 6 3 2 4 2 3 2 4 6 6 9 11 11 10 10 9 13 9 12 10 6 7 16 14 10 12 12 12 12 11
14 11 13 8 5 12 8 7 7 7 7 8 8 3 4 4 3 3 7 5 5 11 8 11 13 10 13 2 1 10 4 8 10 3 6 19 18 13 14 15 13 13 13
15 13 14 13 8 7 5 6 2 1 3 7 7 7 4 3 5 6 5 5 6 5 4 5 6 4 3 5 14 10 6 8 2 8 5 15 17 17 16 16 14 15 16
14 13 12 12 9 6 5 4 3 5 6 3 6 10 5 7 6 5 3 6 6 5 4 4 5 6 4 11 11 6 11 8 1 4 7 12 2 10 17 18 18 16 16
13 13 12 11 12 10 8 4 2 6 8 3 2 3 3 7 4 5 3 4 5 4 4 3 3 4 7 9 7 6 9 5 6 5 4 5 7 17 16 19 19 20 19
11 12 11 11 13 11 9 7 7 7 8 5 6 7 6 8 7 4 4 8 8 3 6 5 4 5 8 9 11 9 5 10 4 7 6 5 5 12 24 22 21 20 19
12 11 10 10 12 13 10 9 8 7 7 6 6 8 9 10 6 4 4 6 9 7 9 4 7 7 6 5 5 7 4 5 5 8 9 6 7 8 14 14 22 22 21
11 13 11 10 9 8 9 8 8 8 6 7 6 5 8 11 9 6 7 8 7 7 6 6 5 8 6 8 9 7 5 6 8 9 8 10 9 9 7 14 17 24 23
15 11 11 10 11 10 8 9 9 8 8 7 8 7 9 4 6 5 8 8 7 6 8 7 8 7 6 6 8 8 7 8 7 8 9 8 12 10 11 14 12 13 23
12 15 13 12 10 10 9 8 9 9 8 9 7 6 7 9 9 12 10 6 8 9 9 8 6 8 7 4 2 4 3 9 8 8 9 8 11 14 10 4 5 11 14
16 13 13 12 12 11 9 8 8 6 5 5 4 7 9 10 11 11 9 8 7 6 9 8 7 6 6 5 4 1 3 2 2 5 8 7 11 7 12 10 9 22 2
16 16 14 13 12 12 12 8 7 7 7 6 4 5 7 10 13 10 8 7 7 6 6 7 6 7 7 3 5 4 2 2 2 2 4 6 7 8 9 8 11 6 2
16 16 16 14 13 12 12 10 9 8 8 8 7 4 4 8 10 7 9 7 6 6 7 6 5 6 5 8 2 5 4 1 3 3 1 1 4 5 6 6 9 8 12
16 16 15 14 11 11 12 12 9 11 8 4 3 1 5 5 6 5 3 6 6 4 6 6 5 7 5 6 4 4 4 4 6 4 3 1 2 2 5 4 6 8 4
15 15 14 13 11 12 12 13 12 8 5 3 3 4 4 3 3 3 4 6 7 6 7 5 5 5 5 4 4 4 6 5 3 4 5 2 2 2 3 4 2 4 9
Wind_Direction
139 131 145 130 128 127 126 124 125 127 126 131 127 123 116 112 107 100 109 116 119 123 134 135 133 125 124 118 119 117 107 110 118 125 125 119 109 102 91 99 133 103 105
138 142 147 130 128 126 125 120 121 120 130 138 132 122 123 114 108 102 105 97 122 130 141 138 133 141 134 127 127 125 121 116 126 149 142 125 110 102 82 76 76 100 106
141 131 149 135 133 129 125 125 125 119 117 123 136 123 119 115 113 113 98 85 106 125 136 129 119 130 130 132 129 135 140 150 174 188 192 155 106 111 96 93 100 111 105
130 150 138 135 133 132 131 125 120 116 117 118 122 120 117 115 122 126 120 108 108 122 131 133 134 139 130 129 130 134 142 153 206 237 30 312 108 113 105 103 107 110 109
149 139 121 138 137 134 130 126 116 116 121 118 112 113 114 118 103 110 131 132 113 123 131 129 138 142 133 135 137 132 137 174 235 250 143 186 97 121 116 121 129 121 170
139 124 131 142 142 142 135 132 128 127 124 126 128 126 130 118 102 107 129 102 114 117 131 130 130 139 135 139 145 152 152 209 250 236 223 99 146 113 113 107 97 105 108
138 119 139 145 148 148 144 136 125 125 128 114 112 111 95 102 120 107 113 112 113 116 119 120 134 138 142 152 162 172 173 230 275 77 38 245 96 104 121 131 129 125 125
116 135 133 146 153 156 151 142 137 128 134 129 111 109 108 111 115 123 124 124 124 124 132 138 130 142 157 170 173 173 194 245 235 181 269 359 120 123 146 146 148 148 142
124 140 150 159 158 165 161 154 155 151 146 138 142 139 131 120 118 117 121 125 123 124 141 145 145 178 176 184 188 190 212 249 267 264 213 212 134 138 168 172 180 170 170
150 136 157 155 161 169 157 161 149 155 162 155 160 147 144 148 155 165 180 168 157 157 173 176 204 216 207 200 208 222 237 249 261 217 208 114 133 155 180 183 195 187 189
166 149 166 155 148 167 153 156 168 176 170 178 181 177 180 186 218 140 135 167 174 212 228 234 219 223 233 224 219 225 238 245 244 194 191 138 143 177 197 197 194 192 195
175 161 152 153 151 160 171 142 188 175 187 196 194 176 236 340 7 297 149 158 249 240 244 238 222 225 224 235 206 212 227 232 229 240 112 138 146 188 212 210 205 205 205
175 166 159 178 183 161 156 189 176 191 172 179 188 195 189 235 211 257 226 204 225 224 241 223 215 224 222 176 356 267 225 174 268 274 157 148 155 185 214 215 211 209 214
172 176 166 167 201 173 176 187 196 307 282 167 161 205 189 216 238 231 283 286 245 285 257 228 264 240 292 273 188 217 238 261 251 276 160 167 164 180 204 218 214 215 219
176 179 182 168 181 215 223 199 150 246 211 264 166 192 198 223 235 271 254 257 274 289 302 275 223 252 253 271 257 211 207 223 306 302 297 168 131 231 205 215 220 219 221
175 173 185 182 169 205 214 191 210 237 226 284 87 69 49 271 258 268 333 303 264 252 253 303 278 259 229 241 257 269 237 151 155 242 256 279 181 258 245 222 221 221 219
175 165 178 190 180 193 207 214 206 216 259 207 224 212 213 244 269 316 309 289 291 295 251 289 281 297 271 241 252 246 181 232 188 233 239 234 196 213 260 242 229 220 214
179 168 187 192 191 179 203 199 233 215 219 231 217 192 207 221 237 260 250 257 259 265 260 214 268 254 241 264 267 239 134 159 205 251 230 236 240 225 232 232 251 236 211
192 170 190 194 201 181 197 220 217 245 230 257 237 190 176 225 231 253 267 255 271 265 279 260 281 266 264 277 276 279 282 197 210 238 229 238 236 240 222 234 222 245 217
169 188 191 200 199 208 200 216 233 223 234 230 229 234 180 191 229 243 259 272 266 239 257 244 246 268 268 264 278 275 269 252 234 223 236 241 248 246 249 249 208 218 216
196 177 199 205 207 204 206 219 220 233 211 237 248 240 200 219 199 228 247 268 251 244 244 244 246 256 260 230 310 279 293 253 238 224 232 241 248 235 237 195 281 242 199
185 195 199 209 203 211 215 213 247 259 256 242 261 223 224 225 231 231 232 240 254 264 252 256 252 248 240 237 240 276 292 309 220 246 242 236 254 249 254 263 188 244 264
193 191 208 206 212 206 227 208 222 249 245 231 247 255 241 233 235 230 242 245 250 242 257 271 262 263 275 240 191 256 288 271 343 259 252 253 259 263 261 231 242 257 99
201 196 199 204 206 210 208 225 215 231 239 224 214 224 262 233 245 221 239 242 250 256 272 265 270 263 268 267 211 234 230 229 292 301 62 296 332 301 271 264 251 265 243
193 196 196 189 197 213 201 231 209 229 253 255 241 73 257 286 287 241 238 252 258 253 245 251 256 271 264 274 295 254 234 258 257 257 272 295 309 321 313 269 242 261 220
191 192 191 176 188 204 206 207 231 256 255 236 237 292 270 198 248 75 304 293 297 292 275 282 285 274 278 261 255 240 274 271 295 244 249 274 298 295 292 330 71 328 246